Location: Recife
(8.0585°S, 34.8848°W)
Time: 15:29:14
(UTC-03:00)

Transit 2A - Pass Details

Date: 21 April 2026
Orbit: 594 x 950 km, 66.7° (Epoch: 12 May)

Event Time Altitude Azimuth Distance (km) Brightness Sun altitude
Rises 17:59:29 0° 179° (S) 3,424 9.2 -11.7°
Reaches altitude 10° 18:02:20 10° 166° (SSE) 2,538 8.4 -12.4°
Maximum altitude 18:07:09 25° 111° (ESE) 1,741 7.2 -13.6°
Drops below altitude 10° 18:12:09 10° 57° (ENE) 2,647 8.4 -14.8°
Enters shadow 18:12:21 - 56° (NE) 2,706 8.4 -14.8°
